SL-8 DEB, 1335

Orbit data source: Space-Track

SL-8 DEB, 1335 is space debris in LEO originally from a launch on Mon, 15 Mar 1965 UTC launched from the Tyuratam Missile And Space Complex (TTMTR). Debris objects in space refer to the collection of defunct objects orbiting the Earth. Examples of debris include non-operational satellites, rocket bodies, and fragments generated from explosions, collisions, or faulty payload assembly.

Loading next visibility...
Identifier
1335, 1965-020E
Orbit
LEO
Last TLE update
11 hours ago
Origin
Manufacturer
Unknown
Mission
Spacecraft
Bus & Motor
Unknown
Mass
Unknown
Launch date (UTC)
1965-03-15 (60 years ago)
Launch vehicle
Unknown
Launch site
Tyuratam Missile And Space Complex (TTMTR)
Object type
Payload
Rocket body
Debris
Shape & HBR
Unknown
Radar Cross Section
Medium (>0.1 m² and <1 m²)

Expand to show TLE details & history

TLE from 11 hours ago
0 SL-8 DEB
1 01335U 65020E   25181.90441510  .00000103  00000-0  80813-4 0  9994
2 01335  56.0768  97.5971 0527167 260.4580  93.6468 13.86004511961255
Epoch: 2025-06-30T21:42Z
TLE epoch observation values (Epoch: 2025-06-30T21:42:21.464Z)
Latitude
-0.00006°
Longitude
-147.1999°
Altitude
988.469 km
Speed
7.336 km/s
True Right ascension
06h 30m 23s
True Declination
0° 00' 00"
Sunlit
Object was in daylight at epoch
Visualization orbit readout
Latitude
56.19905°
Longitude
-60.21891°
Altitude
1,332.051 km
Speed
7.007 km/s
Apparent Right ascension
10h 05m 52s
Apparent Declination
16° 19' 11"
Sunlit
Object is in daylight
Visualization observer readout
Local Sidereal Time
20:11:20
Azimuth
328.687° NNW
Elevation
-27.759°
Doppler factor
1
Orbital elements
Apogee altitude
1,328.391 km
Perigee altitude
556.554 km
Semi-major axis
7,320.61 km
Eccentricity
0.05272
Inclination
56.0768°
RAAN
97.5971°
Arg. of periapsis
260.458°
True anomaly
Unknown
Mean anomaly
93.6468°
Eccentric anomaly
Unknown
Mean motion
3.46515 °/min
Orbital period
103.89 mins
BSTAR
0.000080813
Loading maneuver chart data...
Loading SW <> Apogee altitude chart data...
Loading historical data...
Loading historical data...
Loading historical data...
Loading historical data...
Loading historical data...
Loading historical data...
Loading historical data...

SL-8 DEB Visibility forecast

Observer location: undefined°, undefined°

Span
Click to sort rows by Start time (UTC) header in descending order
Start Az.
Max El. time (UTC)
Max El. Az.
Max El.
End time (UTC)
End Az.
7 mins2025-07-01 18:36:11.985Z141.025° SSE2025-07-01 18:40:11.985Z107.932° ESE14.228°2025-07-01 18:43:11.985Z84.639° E
13 mins2025-07-01 20:21:11.985Z207.321° SW2025-07-01 20:27:11.985Z111.847° ESE42.696°2025-07-01 20:34:11.985Z49.916° ENE
13 mins2025-07-01 22:10:11.985Z267.088° W2025-07-01 22:16:11.985Z337.646° N34.476°2025-07-01 22:23:11.985Z38.806° NE
11 mins2025-07-02 00:01:11.985Z308.009° NW2025-07-02 00:06:11.985Z352.066° N23.687°2025-07-02 00:12:11.985Z43.266° NE
12 mins2025-07-02 01:51:11.985Z323.551° NNW2025-07-02 01:57:11.985Z17.019° NNE26.971°2025-07-02 02:03:11.985Z73.334° E
14 mins2025-07-02 03:40:11.985Z318.907° NNW2025-07-02 03:47:11.985Z46.023° ENE42.951°2025-07-02 03:54:11.985Z123.469° SE
11 mins2025-07-02 05:29:11.985Z295.877° NW2025-07-02 05:35:11.985Z236.915° WSW28.171°2025-07-02 05:40:11.985Z183.9° SSW
|